MTN621 PANC-PAGA

Flight info

Callsign MTN621
Flight time 1h 55m
Altitude 14000
Route FFITZ MIGKY
Aircraft C208/L-SDF/C

Departure

Time 2026-05-06 00:31
Airport Ted Stevens Anchorage International Airport (PANC)

Arrival

Time 2026-05-06 02:26
Airport Edward G. Pitka Sr Airport (PAGA)
Time Latitude Longitude Altitude Speed Heading
2026-05-05 23:37 61.18675 -149.99984 123 ft 0 kts 344°
2026-05-06 00:12 61.18685 -149.99990 125 ft 5 kts 343°
2026-05-06 00:12 61.18721 -150.00073 112 ft 11 kts 281°
2026-05-06 00:13 61.18705 -150.00226 117 ft 10 kts 255°
2026-05-06 00:13 61.18702 -150.00381 119 ft 13 kts 307°
2026-05-06 00:13 61.18802 -150.00454 118 ft 19 kts 345°
2026-05-06 00:13 61.18937 -150.00529 119 ft 21 kts 345°
2026-05-06 00:14 61.19050 -150.00592 118 ft 15 kts 345°
2026-05-06 00:14 61.19110 -150.00691 118 ft 10 kts 255°
2026-05-06 00:14 61.19084 -150.00882 117 ft 16 kts 255°
2026-05-06 00:14 61.19037 -150.00935 118 ft 9 kts 166°
2026-05-06 00:15 61.18878 -150.00844 120 ft 44 kts 166°
2026-05-06 00:15 61.18471 -150.00612 137 ft 72 kts 163°
2026-05-06 00:15 61.17942 -150.00302 210 ft 83 kts 165°
2026-05-06 00:15 61.17447 -150.00228 398 ft 67 kts 242°
2026-05-06 00:16 61.17438 -150.00423 114 ft 0 kts 116°
2026-05-06 00:16 61.18675 -149.99984 121 ft 0 kts 344°
2026-05-06 00:25 61.18677 -149.99985 117 ft 2 kts 343°
2026-05-06 00:25 61.18714 -150.00029 130 ft 10 kts 308°
2026-05-06 00:25 61.18707 -150.00208 119 ft 16 kts 255°
2026-05-06 00:26 61.18730 -150.00412 119 ft 18 kts 338°
2026-05-06 00:26 61.18868 -150.00495 119 ft 23 kts 343°
2026-05-06 00:26 61.19036 -150.00591 119 ft 22 kts 346°
2026-05-06 00:26 61.19110 -150.00672 117 ft 10 kts 282°
2026-05-06 00:27 61.19098 -150.00773 118 ft 0 kts 255°
2026-05-06 00:28 61.19096 -150.00790 118 ft 5 kts 254°
2026-05-06 00:28 61.19077 -150.00914 115 ft 12 kts 230°
2026-05-06 00:28 61.18973 -150.00899 117 ft 25 kts 165°
2026-05-06 00:29 61.18684 -150.00738 122 ft 60 kts 164°
2026-05-06 00:29 61.18242 -150.00452 146 ft 72 kts 160°
2026-05-06 00:29 61.17748 -150.00137 231 ft 74 kts 162°
2026-05-06 00:29 61.17354 -150.00063 454 ft 51 kts 169°
2026-05-06 00:30 61.16942 -149.99924 393 ft 71 kts 167°
2026-05-06 00:30 61.16431 -149.99720 455 ft 75 kts 178°
2026-05-06 00:30 61.15943 -150.00053 546 ft 80 kts 222°
2026-05-06 00:30 61.15669 -150.01088 616 ft 87 kts 256°
2026-05-06 00:31 61.15711 -150.02348 677 ft 89 kts 285°
2026-05-06 00:31 61.15945 -150.03707 656 ft 108 kts 288°
2026-05-06 00:31 61.16247 -150.05079 886 ft 102 kts 298°
2026-05-06 00:31 61.16667 -150.06297 1033 ft 107 kts 311°
2026-05-06 00:32 61.17180 -150.07535 1163 ft 118 kts 309°
2026-05-06 00:32 61.17716 -150.08875 1338 ft 123 kts 309°
2026-05-06 00:32 61.18278 -150.10240 1518 ft 126 kts 311°
2026-05-06 00:32 61.18847 -150.11645 1687 ft 129 kts 308°
2026-05-06 00:33 61.19403 -150.13129 1854 ft 132 kts 307°
2026-05-06 00:33 61.19923 -150.14729 1981 ft 136 kts 299°
2026-05-06 00:33 61.20378 -150.16537 1983 ft 148 kts 296°
2026-05-06 00:33 61.21003 -150.18313 1992 ft 154 kts 311°
2026-05-06 00:34 61.21663 -150.19952 2200 ft 147 kts 307°
2026-05-06 00:34 61.22286 -150.21633 2409 ft 144 kts 307°
2026-05-06 00:34 61.22883 -150.23253 2600 ft 143 kts 307°
2026-05-06 00:34 61.23491 -150.24911 2807 ft 142 kts 307°
2026-05-06 00:35 61.24088 -150.26548 3007 ft 142 kts 307°
2026-05-06 00:35 61.24679 -150.28162 3238 ft 138 kts 307°
2026-05-06 00:35 61.25242 -150.29711 3502 ft 132 kts 307°
2026-05-06 00:35 61.25794 -150.31185 3767 ft 127 kts 309°
2026-05-06 00:36 61.26333 -150.32615 3993 ft 126 kts 306°
2026-05-06 00:36 61.26879 -150.34189 4009 ft 142 kts 305°
2026-05-06 00:36 61.27500 -150.35892 4016 ft 154 kts 308°
2026-05-06 00:36 61.28178 -150.37698 4017 ft 162 kts 307°
2026-05-06 00:37 61.28869 -150.39598 4012 ft 167 kts 307°
2026-05-06 00:37 61.29569 -150.41545 4013 ft 170 kts 307°
2026-05-06 00:37 61.30281 -150.43513 4012 ft 171 kts 307°
2026-05-06 00:37 61.30989 -150.45462 4013 ft 171 kts 307°
2026-05-06 00:38 61.31707 -150.47447 4019 ft 172 kts 307°
2026-05-06 00:38 61.32429 -150.49441 4014 ft 173 kts 307°
2026-05-06 00:38 61.33151 -150.51441 4013 ft 173 kts 306°
2026-05-06 00:38 61.33868 -150.53428 4125 ft 166 kts 307°
2026-05-06 00:39 61.34542 -150.55292 4402 ft 153 kts 306°
2026-05-06 00:39 61.35154 -150.56994 4661 ft 145 kts 306°
2026-05-06 00:39 61.35743 -150.58631 4918 ft 138 kts 306°
2026-05-06 00:39 61.36305 -150.60198 5178 ft 132 kts 305°
2026-05-06 00:40 61.36846 -150.61703 5439 ft 127 kts 305°
2026-05-06 00:40 61.37365 -150.63147 5691 ft 122 kts 304°
2026-05-06 00:40 61.37875 -150.64567 5910 ft 122 kts 304°
2026-05-06 00:40 61.38382 -150.65983 6141 ft 121 kts 303°
2026-05-06 00:41 61.38886 -150.67385 6361 ft 120 kts 303°
2026-05-06 00:41 61.39383 -150.68774 6579 ft 119 kts 303°
2026-05-06 00:41 61.39889 -150.70188 6741 ft 124 kts 304°
2026-05-06 00:41 61.40419 -150.71657 6902 ft 129 kts 306°
2026-05-06 00:42 61.40966 -150.73173 7080 ft 133 kts 305°
2026-05-06 00:42 61.41528 -150.74746 7252 ft 137 kts 305°
2026-05-06 00:42 61.42109 -150.76360 7426 ft 141 kts 304°
2026-05-06 00:42 61.42700 -150.78019 7603 ft 144 kts 306°
2026-05-06 00:43 61.43306 -150.79707 7766 ft 145 kts 305°
2026-05-06 00:43 61.43910 -150.81400 7934 ft 146 kts 304°
2026-05-06 00:43 61.44520 -150.83122 8099 ft 149 kts 306°
2026-05-06 00:43 61.45142 -150.84861 8311 ft 148 kts 304°
2026-05-06 00:44 61.45749 -150.86566 8581 ft 144 kts 306°
2026-05-06 00:44 61.46344 -150.88229 8841 ft 142 kts 306°
2026-05-06 00:44 61.46926 -150.89868 9096 ft 139 kts 304°
2026-05-06 00:44 61.47488 -150.91465 9358 ft 134 kts 306°
2026-05-06 00:45 61.48034 -150.93006 9607 ft 130 kts 305°
2026-05-06 00:45 61.48559 -150.94492 9840 ft 124 kts 305°
2026-05-06 00:45 61.49062 -150.95909 10061 ft 118 kts 304°
2026-05-06 00:45 61.49538 -150.97267 10280 ft 113 kts 303°
2026-05-06 00:46 61.49995 -150.98561 10458 ft 109 kts 302°
2026-05-06 00:46 61.50445 -150.99846 10590 ft 111 kts 304°
2026-05-06 00:46 61.50921 -151.01155 10725 ft 114 kts 305°
2026-05-06 00:46 61.51403 -151.02519 10872 ft 118 kts 304°
2026-05-06 00:47 61.51895 -151.03916 11019 ft 120 kts 303°
2026-05-06 00:47 61.52395 -151.05344 11161 ft 123 kts 302°
2026-05-06 00:47 61.52909 -151.06796 11310 ft 128 kts 304°
2026-05-06 00:47 61.53461 -151.08329 11469 ft 132 kts 304°
2026-05-06 00:48 61.54014 -151.09879 11626 ft 137 kts 304°
2026-05-06 00:48 61.54594 -151.11533 11784 ft 141 kts 302°
2026-05-06 00:48 61.55175 -151.13186 11937 ft 144 kts 302°
2026-05-06 00:48 61.55783 -151.14927 12088 ft 147 kts 303°
2026-05-06 00:49 61.56395 -151.16664 12235 ft 149 kts 304°
2026-05-06 00:49 61.57015 -151.18415 12380 ft 150 kts 304°
2026-05-06 00:49 61.57634 -151.20187 12519 ft 151 kts 303°
2026-05-06 00:49 61.58261 -151.21962 12660 ft 152 kts 301°
2026-05-06 00:50 61.58885 -151.23757 12800 ft 153 kts 303°
2026-05-06 00:50 61.59500 -151.25573 12941 ft 153 kts 302°
2026-05-06 00:50 61.60128 -151.27379 13089 ft 153 kts 302°
2026-05-06 00:50 61.60761 -151.29175 13230 ft 153 kts 304°
2026-05-06 00:51 61.61397 -151.30968 13362 ft 153 kts 302°
2026-05-06 00:51 61.62031 -151.32769 13510 ft 153 kts 302°
2026-05-06 00:51 61.62656 -151.34581 13639 ft 153 kts 303°
2026-05-06 00:51 61.63285 -151.36387 13764 ft 153 kts 303°
2026-05-06 00:52 61.63913 -151.38192 13886 ft 153 kts 303°
2026-05-06 00:52 61.64536 -151.39973 13997 ft 154 kts 303°
2026-05-06 00:52 61.65180 -151.41848 14004 ft 161 kts 301°
2026-05-06 00:52 61.65844 -151.43784 14006 ft 164 kts 303°
2026-05-06 00:53 61.66523 -151.45719 14008 ft 164 kts 302°
2026-05-06 00:53 61.67198 -151.47662 14009 ft 165 kts 302°
2026-05-06 00:53 61.67874 -151.49619 14010 ft 165 kts 302°
2026-05-06 00:53 61.68554 -151.51580 14009 ft 166 kts 302°
2026-05-06 00:54 61.69237 -151.53557 14009 ft 167 kts 302°
2026-05-06 00:54 61.69923 -151.55541 14009 ft 168 kts 302°
2026-05-06 00:54 61.70611 -151.57528 14009 ft 168 kts 302°
2026-05-06 00:54 61.71302 -151.59531 14013 ft 169 kts 302°
2026-05-06 00:55 61.71996 -151.61538 14008 ft 170 kts 302°
2026-05-06 00:55 61.72687 -151.63559 14006 ft 170 kts 302°
2026-05-06 00:55 61.73382 -151.65579 14005 ft 170 kts 302°
2026-05-06 00:55 61.74078 -151.67603 14005 ft 170 kts 302°
2026-05-06 00:56 61.74774 -151.69624 14005 ft 170 kts 302°
2026-05-06 00:56 61.75467 -151.71646 14002 ft 170 kts 302°
2026-05-06 00:56 61.76159 -151.73664 14000 ft 169 kts 302°
2026-05-06 00:56 61.76849 -151.75680 14001 ft 170 kts 302°
2026-05-06 00:57 61.77540 -151.77698 13995 ft 169 kts 302°
2026-05-06 00:57 61.78227 -151.79710 13992 ft 169 kts 302°
2026-05-06 00:57 61.78912 -151.81720 13996 ft 169 kts 302°
2026-05-06 00:57 61.79599 -151.83730 14013 ft 169 kts 303°
2026-05-06 00:58 61.80285 -151.85739 14015 ft 168 kts 303°
2026-05-06 00:58 61.80969 -151.87740 14015 ft 168 kts 303°
2026-05-06 00:58 61.81648 -151.89738 14011 ft 167 kts 303°
2026-05-06 00:58 61.82325 -151.91725 14011 ft 166 kts 303°
2026-05-06 00:59 61.82999 -151.93711 14011 ft 166 kts 302°
2026-05-06 00:59 61.83673 -151.95703 14008 ft 166 kts 303°
2026-05-06 00:59 61.84347 -151.97687 14007 ft 166 kts 303°
2026-05-06 00:59 61.85022 -151.99669 14006 ft 166 kts 302°
2026-05-06 01:00 61.85683 -152.01624 14005 ft 165 kts 302°
2026-05-06 01:00 61.86352 -152.03603 14007 ft 165 kts 302°
2026-05-06 01:00 61.87023 -152.05590 14008 ft 166 kts 302°
2026-05-06 01:00 61.87697 -152.07581 14009 ft 166 kts 302°
2026-05-06 01:01 61.88369 -152.09575 14009 ft 166 kts 302°
2026-05-06 01:01 61.89042 -152.11565 14009 ft 166 kts 303°
2026-05-06 01:01 61.89713 -152.13554 14008 ft 166 kts 302°
2026-05-06 01:01 61.90383 -152.15547 14008 ft 166 kts 302°
2026-05-06 01:02 61.91053 -152.17541 14008 ft 166 kts 302°
2026-05-06 01:02 61.91722 -152.19532 14001 ft 165 kts 303°
2026-05-06 01:02 61.92390 -152.21521 14001 ft 165 kts 302°
2026-05-06 01:02 61.93056 -152.23511 14003 ft 166 kts 302°
2026-05-06 01:03 61.93725 -152.25509 14002 ft 166 kts 302°
2026-05-06 01:03 61.94394 -152.27496 14002 ft 164 kts 302°
2026-05-06 01:03 61.95052 -152.29467 14002 ft 163 kts 302°
2026-05-06 01:03 61.95706 -152.31424 14005 ft 162 kts 302°
2026-05-06 01:04 61.96360 -152.33386 14003 ft 162 kts 302°
2026-05-06 01:04 61.97013 -152.35342 14003 ft 163 kts 302°
2026-05-06 01:04 61.97670 -152.37305 14001 ft 163 kts 302°
2026-05-06 01:04 61.98321 -152.39280 14013 ft 163 kts 302°
2026-05-06 01:05 61.98978 -152.41252 14011 ft 164 kts 304°
2026-05-06 01:05 61.99640 -152.43222 14013 ft 164 kts 303°
2026-05-06 01:05 62.00287 -152.45174 14013 ft 164 kts 303°
2026-05-06 01:05 62.00943 -152.47147 14014 ft 163 kts 303°
2026-05-06 01:06 62.01599 -152.49124 14015 ft 163 kts 303°
2026-05-06 01:06 62.02263 -152.51127 14017 ft 163 kts 303°
2026-05-06 01:06 62.02909 -152.53080 14018 ft 164 kts 303°
2026-05-06 01:06 62.03568 -152.55062 14019 ft 164 kts 303°
2026-05-06 01:07 62.04224 -152.57056 14022 ft 165 kts 303°
2026-05-06 01:07 62.04883 -152.59053 14023 ft 165 kts 303°
2026-05-06 01:07 62.05544 -152.61055 14024 ft 165 kts 303°
2026-05-06 01:07 62.06205 -152.63059 14023 ft 165 kts 303°
2026-05-06 01:08 62.06867 -152.65066 14021 ft 165 kts 303°
2026-05-06 01:08 62.07528 -152.67075 14020 ft 165 kts 303°
2026-05-06 01:08 62.08189 -152.69084 14020 ft 165 kts 303°
2026-05-06 01:08 62.08848 -152.71090 14021 ft 165 kts 303°
2026-05-06 01:09 62.09506 -152.73093 14023 ft 165 kts 303°
2026-05-06 01:09 62.10163 -152.75097 14022 ft 165 kts 303°
2026-05-06 01:09 62.10819 -152.77097 14021 ft 164 kts 303°
2026-05-06 01:09 62.11474 -152.79098 14019 ft 164 kts 303°
2026-05-06 01:10 62.12128 -152.81099 14016 ft 164 kts 303°
2026-05-06 01:10 62.12780 -152.83085 14016 ft 163 kts 303°
2026-05-06 01:10 62.13429 -152.85080 14015 ft 164 kts 303°
2026-05-06 01:10 62.14080 -152.87079 14014 ft 164 kts 303°
2026-05-06 01:11 62.14754 -152.89044 14009 ft 165 kts 313°
2026-05-06 01:11 62.15735 -152.90297 14018 ft 165 kts 331°
2026-05-06 01:11 62.16739 -152.91486 14022 ft 165 kts 328°
2026-05-06 01:11 62.17739 -152.92702 14023 ft 165 kts 329°
2026-05-06 01:12 62.18748 -152.93895 14027 ft 166 kts 328°
2026-05-06 01:12 62.19764 -152.95097 14020 ft 167 kts 328°
2026-05-06 01:12 62.20780 -152.96300 14022 ft 167 kts 329°
2026-05-06 01:12 62.21798 -152.97510 14030 ft 168 kts 329°
2026-05-06 01:13 62.22820 -152.98722 14024 ft 168 kts 329°
2026-05-06 01:13 62.23840 -152.99937 14026 ft 168 kts 329°
2026-05-06 01:13 62.24848 -153.01135 14026 ft 168 kts 328°
2026-05-06 01:13 62.25871 -153.02359 14025 ft 168 kts 328°
2026-05-06 01:14 62.27920 -153.04801 14033 ft 169 kts 328°
2026-05-06 01:14 62.28949 -153.06029 14030 ft 168 kts 328°
2026-05-06 01:14 62.29970 -153.07253 14026 ft 168 kts 329°
2026-05-06 01:15 62.30988 -153.08466 14025 ft 167 kts 328°
2026-05-06 01:15 62.32002 -153.09684 14026 ft 168 kts 328°
2026-05-06 01:15 62.33024 -153.10902 14033 ft 168 kts 328°
2026-05-06 01:15 62.34047 -153.12126 14035 ft 168 kts 328°
2026-05-06 01:16 62.35068 -153.13355 14029 ft 168 kts 328°
2026-05-06 01:16 62.36089 -153.14584 14031 ft 168 kts 328°
2026-05-06 01:16 62.36768 -153.15399 14032 ft 169 kts 328°
2026-05-06 01:16 62.38143 -153.17055 14031 ft 169 kts 329°
2026-05-06 01:17 62.38824 -153.17873 14034 ft 169 kts 328°
2026-05-06 01:17 62.39850 -153.19111 14039 ft 169 kts 328°
2026-05-06 01:17 62.40875 -153.20360 14041 ft 169 kts 328°
2026-05-06 01:17 62.41907 -153.21587 14038 ft 170 kts 328°
2026-05-06 01:18 62.42939 -153.22823 14039 ft 169 kts 328°
2026-05-06 01:18 62.43965 -153.24073 14039 ft 169 kts 328°
2026-05-06 01:18 62.44991 -153.25310 14037 ft 169 kts 327°
2026-05-06 01:18 62.46012 -153.26540 14053 ft 168 kts 327°
2026-05-06 01:19 62.47033 -153.27774 14055 ft 169 kts 328°
2026-05-06 01:19 62.48056 -153.29026 14057 ft 169 kts 328°
2026-05-06 01:19 62.49083 -153.30277 14049 ft 170 kts 328°
2026-05-06 01:19 62.50111 -153.31522 14049 ft 169 kts 328°
2026-05-06 01:20 62.51136 -153.32766 14050 ft 169 kts 328°
2026-05-06 01:20 62.52158 -153.34022 14052 ft 169 kts 328°
2026-05-06 01:20 62.53198 -153.35267 14056 ft 171 kts 326°
2026-05-06 01:20 62.54238 -153.36532 14053 ft 172 kts 326°
2026-05-06 01:21 62.55284 -153.37796 14058 ft 172 kts 327°
2026-05-06 01:21 62.56325 -153.39083 14060 ft 172 kts 327°
2026-05-06 01:21 62.57369 -153.40373 14056 ft 173 kts 325°
2026-05-06 01:21 62.58417 -153.41653 14056 ft 173 kts 328°
2026-05-06 01:22 62.59468 -153.42918 14064 ft 172 kts 327°
2026-05-06 01:22 62.60509 -153.44201 14062 ft 172 kts 325°
2026-05-06 01:22 62.61552 -153.45483 14062 ft 172 kts 327°
2026-05-06 01:22 62.62603 -153.46739 14064 ft 172 kts 328°
2026-05-06 01:23 62.63650 -153.48007 14065 ft 172 kts 325°
2026-05-06 01:23 62.64687 -153.49310 14064 ft 172 kts 327°
2026-05-06 01:23 62.65733 -153.50573 14065 ft 172 kts 328°
2026-05-06 01:23 62.66777 -153.51838 14066 ft 172 kts 325°
2026-05-06 01:24 62.67812 -153.53181 13991 ft 176 kts 326°
2026-05-06 01:24 62.68861 -153.54467 13990 ft 175 kts 326°
2026-05-06 01:24 62.69915 -153.55761 13987 ft 173 kts 327°
2026-05-06 01:24 62.70961 -153.57057 13986 ft 173 kts 327°
2026-05-06 01:25 62.72006 -153.58341 13981 ft 172 kts 327°
2026-05-06 01:25 62.73044 -153.59634 13992 ft 172 kts 327°
2026-05-06 01:25 62.74083 -153.60916 13991 ft 171 kts 325°
2026-05-06 01:25 62.75118 -153.62201 13990 ft 171 kts 327°
2026-05-06 01:26 62.76156 -153.63471 13985 ft 171 kts 327°
2026-05-06 01:26 62.77192 -153.64741 13983 ft 171 kts 325°
2026-05-06 01:26 62.78219 -153.66036 13984 ft 170 kts 327°
2026-05-06 01:26 62.79251 -153.67310 13983 ft 170 kts 327°
2026-05-06 01:27 62.80280 -153.68588 13987 ft 170 kts 326°
2026-05-06 01:27 62.81308 -153.69869 13988 ft 170 kts 327°
2026-05-06 01:27 62.82334 -153.71150 13992 ft 170 kts 325°
2026-05-06 01:27 62.83361 -153.72435 13993 ft 170 kts 325°
2026-05-06 01:28 62.84391 -153.73711 13993 ft 170 kts 325°
2026-05-06 01:28 62.85413 -153.75008 13990 ft 170 kts 325°
2026-05-06 01:28 62.86448 -153.76272 13996 ft 170 kts 327°
2026-05-06 01:28 62.87473 -153.77546 13994 ft 169 kts 326°
2026-05-06 01:29 62.88494 -153.78826 13993 ft 169 kts 327°
2026-05-06 01:29 62.89518 -153.80089 13990 ft 169 kts 326°
2026-05-06 01:29 62.90531 -153.81381 13986 ft 168 kts 324°
2026-05-06 01:29 62.91541 -153.82667 13986 ft 168 kts 325°
2026-05-06 01:30 62.92556 -153.83935 13980 ft 168 kts 325°
2026-05-06 01:30 62.93569 -153.85203 13972 ft 168 kts 325°
2026-05-06 01:30 62.94580 -153.86479 13972 ft 167 kts 326°
2026-05-06 01:30 62.95591 -153.87750 13970 ft 167 kts 326°
2026-05-06 01:31 62.96601 -153.89021 13968 ft 167 kts 326°
2026-05-06 01:31 62.97610 -153.90295 13968 ft 167 kts 326°
2026-05-06 01:31 62.98620 -153.91566 13968 ft 167 kts 325°
2026-05-06 01:31 62.99629 -153.92838 13969 ft 167 kts 325°
2026-05-06 01:32 63.00640 -153.94115 13971 ft 168 kts 326°
2026-05-06 01:32 63.01653 -153.95399 13972 ft 168 kts 325°
2026-05-06 01:32 63.02668 -153.96684 13975 ft 169 kts 326°
2026-05-06 01:32 63.03688 -153.97973 13973 ft 169 kts 325°
2026-05-06 01:33 63.04703 -153.99270 13970 ft 169 kts 325°
2026-05-06 01:33 63.05718 -154.00555 13969 ft 168 kts 326°
2026-05-06 01:33 63.06734 -154.01836 13968 ft 168 kts 325°
2026-05-06 01:33 63.07746 -154.03122 13966 ft 168 kts 325°
2026-05-06 01:34 63.08758 -154.04407 13965 ft 168 kts 325°
2026-05-06 01:34 63.09768 -154.05697 13966 ft 168 kts 325°
2026-05-06 01:34 63.10780 -154.06984 13965 ft 168 kts 326°
2026-05-06 01:34 63.11794 -154.08277 13961 ft 168 kts 325°
2026-05-06 01:35 63.12809 -154.09573 13965 ft 169 kts 326°
2026-05-06 01:35 63.13827 -154.10868 13965 ft 169 kts 326°
2026-05-06 01:35 63.14844 -154.12167 13964 ft 169 kts 324°
2026-05-06 01:35 63.15859 -154.13470 13965 ft 168 kts 325°
2026-05-06 01:36 63.16872 -154.14768 13964 ft 168 kts 325°
2026-05-06 01:36 63.17882 -154.16063 13965 ft 168 kts 324°
2026-05-06 01:36 63.18891 -154.17356 13966 ft 167 kts 326°
2026-05-06 01:36 63.19903 -154.18644 13975 ft 168 kts 322°
2026-05-06 01:37 63.20934 -154.19911 13974 ft 171 kts 325°
2026-05-06 01:37 63.21956 -154.21259 13975 ft 171 kts 323°
2026-05-06 01:37 63.22980 -154.22621 13977 ft 172 kts 323°
2026-05-06 01:37 63.24001 -154.23930 13979 ft 172 kts 324°
2026-05-06 01:38 63.25049 -154.25270 13979 ft 171 kts 324°
2026-05-06 01:38 63.26078 -154.26593 13979 ft 171 kts 324°
2026-05-06 01:38 63.27094 -154.27902 13983 ft 171 kts 324°
2026-05-06 01:38 63.28124 -154.29233 13985 ft 171 kts 324°
2026-05-06 01:39 63.29154 -154.30566 13998 ft 172 kts 324°
2026-05-06 01:39 63.30186 -154.31903 13996 ft 172 kts 324°
2026-05-06 01:39 63.31220 -154.33242 13997 ft 172 kts 324°
2026-05-06 01:39 63.32259 -154.34549 13998 ft 172 kts 327°
2026-05-06 01:40 63.33285 -154.35887 13999 ft 171 kts 323°
2026-05-06 01:40 63.34304 -154.37248 13996 ft 171 kts 324°
2026-05-06 01:40 63.35332 -154.38580 13997 ft 171 kts 324°
2026-05-06 01:40 63.36359 -154.39906 13999 ft 171 kts 324°
2026-05-06 01:41 63.37386 -154.41247 13998 ft 172 kts 324°
2026-05-06 01:41 63.38421 -154.42596 13998 ft 173 kts 324°
2026-05-06 01:41 63.39461 -154.43941 13993 ft 173 kts 325°
2026-05-06 01:41 63.40498 -154.45294 14007 ft 173 kts 324°
2026-05-06 01:42 63.41535 -154.46661 14006 ft 173 kts 324°
2026-05-06 01:42 63.42575 -154.48014 14002 ft 173 kts 324°
2026-05-06 01:42 63.43609 -154.49363 13999 ft 172 kts 324°
2026-05-06 01:42 63.44637 -154.50711 13998 ft 171 kts 324°
2026-05-06 01:43 63.45665 -154.52060 13999 ft 172 kts 324°
2026-05-06 01:43 63.46696 -154.53416 13996 ft 172 kts 324°
2026-05-06 01:43 63.47725 -154.54773 13994 ft 172 kts 324°
2026-05-06 01:43 63.48759 -154.56125 13994 ft 172 kts 324°
2026-05-06 01:44 63.49793 -154.57477 13995 ft 172 kts 324°
2026-05-06 01:44 63.50823 -154.58832 13994 ft 171 kts 324°
2026-05-06 01:44 63.51850 -154.60183 13994 ft 172 kts 324°
2026-05-06 01:44 63.52882 -154.61540 13989 ft 171 kts 324°
2026-05-06 01:45 63.53901 -154.62889 14005 ft 170 kts 324°
2026-05-06 01:45 63.54920 -154.64241 14003 ft 171 kts 324°
2026-05-06 01:45 63.55950 -154.65595 14000 ft 172 kts 324°
2026-05-06 01:45 63.56981 -154.66955 14001 ft 172 kts 324°
2026-05-06 01:46 63.58014 -154.68325 14004 ft 173 kts 324°
2026-05-06 01:46 63.59051 -154.69701 14005 ft 173 kts 324°
2026-05-06 01:46 63.60086 -154.71073 14006 ft 173 kts 324°
2026-05-06 01:46 63.61124 -154.72446 14004 ft 173 kts 324°
2026-05-06 01:47 63.62160 -154.73820 14005 ft 173 kts 324°
2026-05-06 01:47 63.63195 -154.75200 14002 ft 173 kts 324°
2026-05-06 01:47 63.64230 -154.76579 14002 ft 173 kts 324°
2026-05-06 01:47 63.65267 -154.77958 14002 ft 173 kts 324°
2026-05-06 01:48 63.66289 -154.79321 14001 ft 173 kts 324°
2026-05-06 01:48 63.67324 -154.80700 14001 ft 173 kts 324°
2026-05-06 01:48 63.68360 -154.82082 14004 ft 173 kts 324°
2026-05-06 01:48 63.69399 -154.83468 14005 ft 174 kts 324°
2026-05-06 01:49 63.70440 -154.84860 14005 ft 174 kts 324°
2026-05-06 01:49 63.71479 -154.86254 14006 ft 174 kts 324°
2026-05-06 01:49 63.72523 -154.87654 14007 ft 175 kts 324°
2026-05-06 01:49 63.73570 -154.89054 14009 ft 175 kts 324°
2026-05-06 01:50 63.74614 -154.90455 14007 ft 175 kts 324°
2026-05-06 01:50 63.75660 -154.91859 14005 ft 175 kts 324°
2026-05-06 01:50 63.76702 -154.93260 14004 ft 174 kts 324°
2026-05-06 01:50 63.77743 -154.94658 14003 ft 174 kts 324°
2026-05-06 01:51 63.78599 -154.95809 14003 ft 174 kts 324°
2026-05-06 01:51 63.79634 -154.97207 14002 ft 173 kts 324°
2026-05-06 01:51 63.80668 -154.98602 14002 ft 173 kts 324°
2026-05-06 01:51 63.81704 -154.99997 13999 ft 173 kts 324°
2026-05-06 01:52 63.82725 -155.01379 14003 ft 173 kts 323°
2026-05-06 01:52 63.83761 -155.02784 13993 ft 173 kts 324°
2026-05-06 01:52 63.84796 -155.04184 13994 ft 173 kts 324°
2026-05-06 01:52 63.85834 -155.05582 13993 ft 174 kts 324°
2026-05-06 01:53 63.86870 -155.06992 13998 ft 174 kts 323°
2026-05-06 01:53 63.87909 -155.08403 13995 ft 174 kts 324°
2026-05-06 01:53 63.88948 -155.09812 13996 ft 174 kts 324°
2026-05-06 01:53 63.89986 -155.11222 13995 ft 174 kts 324°
2026-05-06 01:54 63.91026 -155.12629 13995 ft 174 kts 324°
2026-05-06 01:54 63.92064 -155.14046 14001 ft 174 kts 323°
2026-05-06 01:54 63.93105 -155.15469 14002 ft 175 kts 324°
2026-05-06 01:54 63.94148 -155.16894 14002 ft 175 kts 323°
2026-05-06 01:55 63.95192 -155.18323 14000 ft 175 kts 324°
2026-05-06 01:55 63.96232 -155.19738 13998 ft 174 kts 324°
2026-05-06 01:55 63.97270 -155.21154 13996 ft 173 kts 323°
2026-05-06 01:55 63.98303 -155.22568 13993 ft 173 kts 323°
2026-05-06 01:56 63.99335 -155.23982 13991 ft 173 kts 323°
2026-05-06 01:56 64.00367 -155.25399 13992 ft 173 kts 323°
2026-05-06 01:56 64.01401 -155.26819 13992 ft 174 kts 323°
2026-05-06 01:56 64.02440 -155.28250 13990 ft 175 kts 324°
2026-05-06 01:57 64.03485 -155.29677 13994 ft 175 kts 323°
2026-05-06 01:57 64.04528 -155.31113 13992 ft 175 kts 324°
2026-05-06 01:57 64.05568 -155.32544 13991 ft 175 kts 323°
2026-05-06 01:57 64.06607 -155.33978 13991 ft 175 kts 324°
2026-05-06 01:58 64.07645 -155.35411 13988 ft 174 kts 323°
2026-05-06 01:58 64.08680 -155.36839 13985 ft 174 kts 324°
2026-05-06 01:58 64.09716 -155.38268 13988 ft 174 kts 323°
2026-05-06 01:58 64.10753 -155.39709 13989 ft 175 kts 323°
2026-05-06 01:59 64.11797 -155.41150 13991 ft 176 kts 323°
2026-05-06 01:59 64.12845 -155.42598 13992 ft 176 kts 323°
2026-05-06 01:59 64.13888 -155.44047 13995 ft 175 kts 323°
2026-05-06 01:59 64.14928 -155.45496 13992 ft 175 kts 323°
2026-05-06 02:00 64.15969 -155.46945 13991 ft 175 kts 323°
2026-05-06 02:00 64.17009 -155.48387 13989 ft 175 kts 323°
2026-05-06 02:00 64.18039 -155.49817 13988 ft 176 kts 323°
2026-05-06 02:00 64.19097 -155.51292 13990 ft 176 kts 323°
2026-05-06 02:01 64.20126 -155.52724 13988 ft 175 kts 323°
2026-05-06 02:01 64.21162 -155.54176 13998 ft 175 kts 324°
2026-05-06 02:01 64.22201 -155.55626 13995 ft 174 kts 324°
2026-05-06 02:01 64.23236 -155.57070 13993 ft 174 kts 324°
2026-05-06 02:02 64.24267 -155.58512 13992 ft 173 kts 324°
2026-05-06 02:02 64.25297 -155.59955 13991 ft 173 kts 324°
2026-05-06 02:02 64.26324 -155.61394 13990 ft 173 kts 323°
2026-05-06 02:02 64.27351 -155.62836 13990 ft 173 kts 324°
2026-05-06 02:03 64.28379 -155.64280 13990 ft 173 kts 324°
2026-05-06 02:03 64.29404 -155.65727 13987 ft 172 kts 323°
2026-05-06 02:03 64.30422 -155.67190 13988 ft 173 kts 323°
2026-05-06 02:03 64.31445 -155.68639 13992 ft 173 kts 324°
2026-05-06 02:04 64.32470 -155.70081 13993 ft 172 kts 324°
2026-05-06 02:04 64.33494 -155.71523 13973 ft 174 kts 324°
2026-05-06 02:04 64.34568 -155.73040 13723 ft 187 kts 324°
2026-05-06 02:04 64.35697 -155.74640 13479 ft 194 kts 324°
2026-05-06 02:05 64.36862 -155.76286 13217 ft 198 kts 324°
2026-05-06 02:05 64.38047 -155.77957 12940 ft 201 kts 325°
2026-05-06 02:05 64.39240 -155.79645 12680 ft 202 kts 325°
2026-05-06 02:05 64.40437 -155.81341 12414 ft 201 kts 324°
2026-05-06 02:06 64.41589 -155.82972 12133 ft 185 kts 326°
2026-05-06 02:06 64.42631 -155.84427 11831 ft 166 kts 325°
2026-05-06 02:06 64.43581 -155.85777 11525 ft 155 kts 323°
2026-05-06 02:06 64.44476 -155.87057 11230 ft 148 kts 324°
2026-05-06 02:07 64.45335 -155.88283 10943 ft 142 kts 323°
2026-05-06 02:07 64.46169 -155.89478 10668 ft 141 kts 324°
2026-05-06 02:07 64.47016 -155.90710 10421 ft 146 kts 324°
2026-05-06 02:07 64.47891 -155.91962 10185 ft 149 kts 323°
2026-05-06 02:08 64.48783 -155.93227 9958 ft 151 kts 326°
2026-05-06 02:08 64.49684 -155.94497 9717 ft 152 kts 326°
2026-05-06 02:08 64.50582 -155.95791 9455 ft 152 kts 323°
2026-05-06 02:08 64.51482 -155.97082 9162 ft 152 kts 325°
2026-05-06 02:09 64.52381 -155.98374 8865 ft 152 kts 326°
2026-05-06 02:09 64.53277 -155.99659 8571 ft 151 kts 324°
2026-05-06 02:09 64.54172 -156.00929 8282 ft 151 kts 324°
2026-05-06 02:09 64.55059 -156.02217 7990 ft 150 kts 324°
2026-05-06 02:10 64.55931 -156.03495 7710 ft 146 kts 325°
2026-05-06 02:10 64.56796 -156.04717 7417 ft 145 kts 326°
2026-05-06 02:10 64.57652 -156.05932 7120 ft 144 kts 326°
2026-05-06 02:10 64.58486 -156.07137 6850 ft 142 kts 325°
2026-05-06 02:11 64.59330 -156.08353 6562 ft 140 kts 326°
2026-05-06 02:11 64.60157 -156.09547 6285 ft 139 kts 326°
2026-05-06 02:11 64.60979 -156.10738 5992 ft 139 kts 326°
2026-05-06 02:11 64.61781 -156.11907 5698 ft 137 kts 326°
2026-05-06 02:12 64.62592 -156.13073 5415 ft 138 kts 327°
2026-05-06 02:12 64.63403 -156.14245 5129 ft 137 kts 326°
2026-05-06 02:12 64.64200 -156.15388 4994 ft 125 kts 327°
2026-05-06 02:12 64.64894 -156.16396 4985 ft 114 kts 326°
2026-05-06 02:13 64.65545 -156.17340 4978 ft 107 kts 325°
2026-05-06 02:13 64.66176 -156.18258 4818 ft 108 kts 326°
2026-05-06 02:13 64.66813 -156.19166 4566 ft 107 kts 326°
2026-05-06 02:13 64.67451 -156.20093 4313 ft 109 kts 326°
2026-05-06 02:14 64.68090 -156.21022 4073 ft 108 kts 326°
2026-05-06 02:14 64.68705 -156.21913 3986 ft 98 kts 325°
2026-05-06 02:14 64.69265 -156.22743 3985 ft 95 kts 324°
2026-05-06 02:14 64.69829 -156.23570 3990 ft 97 kts 325°
2026-05-06 02:15 64.70414 -156.24431 4009 ft 101 kts 325°
2026-05-06 02:15 64.71021 -156.25314 4000 ft 105 kts 325°
2026-05-06 02:15 64.71398 -156.26682 4008 ft 107 kts 277°
2026-05-06 02:15 64.71460 -156.28440 4010 ft 109 kts 282°
2026-05-06 02:16 64.71567 -156.30235 4006 ft 113 kts 281°
2026-05-06 02:16 64.71668 -156.32081 3988 ft 114 kts 282°
2026-05-06 02:16 64.71774 -156.33882 4004 ft 109 kts 282°
2026-05-06 02:16 64.71885 -156.35666 3998 ft 113 kts 280°
2026-05-06 02:17 64.71982 -156.37479 4013 ft 112 kts 281°
2026-05-06 02:17 64.72087 -156.39092 3976 ft 109 kts 282°
2026-05-06 02:17 64.72182 -156.40855 3997 ft 110 kts 281°
2026-05-06 02:17 64.72287 -156.42653 4003 ft 113 kts 281°
2026-05-06 02:18 64.72397 -156.44516 3871 ft 118 kts 282°
2026-05-06 02:18 64.72514 -156.46427 3696 ft 119 kts 280°
2026-05-06 02:18 64.72627 -156.48332 3511 ft 116 kts 282°
2026-05-06 02:18 64.72728 -156.50154 3320 ft 113 kts 281°
2026-05-06 02:19 64.72838 -156.51978 3124 ft 111 kts 281°
2026-05-06 02:19 64.72945 -156.53748 2923 ft 108 kts 282°
2026-05-06 02:19 64.73042 -156.55449 2729 ft 106 kts 281°
2026-05-06 02:19 64.73140 -156.57131 2548 ft 103 kts 282°
2026-05-06 02:20 64.73328 -156.60385 2305 ft 94 kts 282°
2026-05-06 02:20 64.73408 -156.61811 2300 ft 84 kts 283°
2026-05-06 02:20 64.73477 -156.63063 2310 ft 73 kts 282°
2026-05-06 02:21 64.73543 -156.64285 2335 ft 81 kts 282°
2026-05-06 02:21 64.73622 -156.65681 2335 ft 92 kts 280°
2026-05-06 02:21 64.73655 -156.67259 2304 ft 105 kts 272°
2026-05-06 02:21 64.73649 -156.69062 2170 ft 112 kts 275°
2026-05-06 02:22 64.73672 -156.70775 1995 ft 99 kts 275°
2026-05-06 02:22 64.73647 -156.72342 1843 ft 93 kts 276°
2026-05-06 02:22 64.73646 -156.73769 1717 ft 80 kts 275°
2026-05-06 02:22 64.73644 -156.74970 1593 ft 67 kts 275°
2026-05-06 02:23 64.73638 -156.76047 1506 ft 70 kts 278°
2026-05-06 02:23 64.73650 -156.77263 1430 ft 80 kts 276°
2026-05-06 02:23 64.73652 -156.78642 1318 ft 87 kts 276°
2026-05-06 02:23 64.73653 -156.80059 1154 ft 86 kts 275°
2026-05-06 02:24 64.73618 -156.81463 1003 ft 86 kts 272°
2026-05-06 02:24 64.73554 -156.82757 868 ft 74 kts 272°
2026-05-06 02:24 64.73539 -156.83874 733 ft 66 kts 278°
2026-05-06 02:24 64.73552 -156.84947 606 ft 69 kts 277°
2026-05-06 02:25 64.73562 -156.86104 599 ft 73 kts 275°
2026-05-06 02:25 64.73566 -156.87351 572 ft 78 kts 274°
2026-05-06 02:25 64.73581 -156.88643 508 ft 80 kts 277°
2026-05-06 02:25 64.73583 -156.89887 392 ft 73 kts 278°
2026-05-06 02:26 64.73598 -156.91047 283 ft 72 kts 279°
2026-05-06 02:26 64.73601 -156.92215 190 ft 67 kts 276°
2026-05-06 02:26 64.73605 -156.93108 183 ft 44 kts 270°
2026-05-06 02:26 64.73601 -156.93755 186 ft 37 kts 270°
2026-05-06 02:27 64.73600 -156.94331 182 ft 35 kts 270°
2026-05-06 02:27 64.73600 -156.94810 181 ft 18 kts 277°
2026-05-06 02:27 64.73671 -156.94874 183 ft 10 kts
2026-05-06 02:27 64.73758 -156.94875 183 ft 14 kts
2026-05-06 02:28 64.73835 -156.94872 183 ft 10 kts 11°
2026-05-06 02:28 64.73871 -156.94769 183 ft 6 kts 40°
2026-05-06 02:28 64.73875 -156.94735 183 ft 0 kts 89°